www.pogodaiklimat.ru

Погода и климат >> Архив погоды >> Индия >> Kozhikode


ПОГОДА в Kozhikode

  • Прогноз погоды в Kozhikode
  • Монитор погоды в Kozhikode
  • Климат города

АРХИВ ПОГОДЫ в Kozhikode

Время (UTC), дата Ветер
(напр.,м/с)
 
Видим.   Явления Облачность Т
(С)
Тd
(С)
f
(%)
Тe
(С)
Тes
(С)
Комфортность P
(гПа)
Po
(гПа)
Тmin
(С)
Tmax
(С)
R
(мм)
R24
(мм)
S
(см)
18 22.04 штиль 0 4000 м 3/3 600 м
[Sc diur, vesp]
+29.6 +23.6 70 +40 +40 очень
душно
1011.3 1011.0
21 22.04 штиль 0 4000 м 3/3 600 м
[Sc diur, vesp]
+29.0 +24.1 75 +40 +40 очень
душно
1008.4 1008.0
00 23.04 штиль 0 4000 м 4/4 600 м
[Sc diur, vesp]
+28.0 +24.3 80 +39 +39 очень
душно
1009.2 1009.0
03 23.04 штиль 0 10 км 4/1 600 м
[Sc diur, vesp Ac trans]
+30.0 +26.1 80 +45 +52 опасность
перегрева
1011.5 1012.0 +28.2 +35.0
06 23.04 ЮЗ 2 10 км 5/3 600 м
[Sc diur, vesp Ci sp]
+34.0 +27.1 67 +52 +66 опасность
перегрева
1011.3 1011.0
09 23.04 З 2 10 км 5/3 600 м
[Sc diur, vesp Ac trans Ci fib]
+34.6 +27.8 68 +55 +65 опасность
перегрева
1008.7 1009.0
12 23.04 СЗ 2 10 км 5/3 600 м
[Sc diur, vesp Ac trans Ci sp]
+32.6 +27.1 73 +51 +52 опасность
перегрева
1007.8 1008.0 +34.8
15 23.04 В 2 4000 м 5/3 600 м
[Sc diur, vesp Ci sp]
+30.2 +26.3 80 +46 +46 опасность
перегрева
1010.1 1010.0
18 23.04 штиль 0 4000 м 9/3 600 м
[Cu Sc Ac trans]
+29.8 +25.6 78 +44 +44 опасность
перегрева
1010.6 1011.0
21 23.04 штиль 0 4000 м 4/3 600 м
[Sc diur, vesp Ci fib]
+29.4 +26.0 82 +44 +44 опасность
перегрева
1009.0 1009.0
00 24.04 штиль 0 4000 м 5/3 600 м
[Sc diur, vesp Ci fib]
+28.0 +24.3 80 +39 +39 очень
душно
1009.3 1009.0
03 24.04 штиль 0 10 км 5/1 600 м
[Sc diur, vesp Ac lent Ci fib]
+30.0 +25.5 77 +44 +50 опасность
перегрева
1012.0 1012.0 +27.4 +34.8
06 24.04 ЮЗ 2 10 км 1/1 600 м
[Sc diur, vesp]
+34.4 +26.7 64 +52 +70 опасность
перегрева
1011.7 1012.0
09 24.04 Ю 3 10 км 1/1 600 м
[Sc diur, vesp]
+35.2 +26.3 60 +51 +64 опасность
перегрева
1009.0 1009.0
12 24.04 СЗ 2 10 км 6/3 600 м
[Sc diur, vesp Ac trans Ci sp]
+32.4 +26.0 69 +48 +49 опасность
перегрева
1007.8 1008.0 +35.4
15 24.04 В 2 4000 м 5/3 600 м
[Sc diur, vesp Ci fib]
+30.4 +25.9 77 +45 +45 опасность
перегрева
1010.4 1010.0
18 24.04 штиль 0 4000 м 5/4 600 м
[Sc diur, vesp Ci fib]
+29.6 +26.5 83 +45 +45 опасность
перегрева
1011.1 1011.0
21 24.04 штиль 0 4000 м 5/4 600 м
[Sc diur, vesp Ci fib]
+29.4 +26.0 82 +44 +44 опасность
перегрева
1009.0 1009.0
00 25.04 штиль 0 4000 м 5/3 600 м
[Sc diur, vesp Ci fib]
+28.6 +24.4 78 +40 +40 очень
душно
1009.8 1010.0
03 25.04 З 2 10 км 5/1 600 м
[Sc diur, vesp Ac trans]
+30.4 +25.3 74 +44 +49 опасность
перегрева
1010.7 1011.0 +28.0 +35.4
06 25.04 ЮВ 2 10 км 1/1 600 м
[Sc diur, vesp]
+34.0 +27.1 67 +52 +71 опасность
перегрева
1011.1 1011.0
09 25.04 ЮЗ 2 10 км 3/1 600 м
[Sc diur, vesp Ci sp]
+34.6 +26.9 64 +52 +68 опасность
перегрева
1008.8 1009.0
12 25.04 ЮЗ 2 10 км 5/3 600 м
[Sc diur, vesp Ci sp]
+32.0 +26.5 73 +49 +50 опасность
перегрева
1008.2 1008.0 +35.2
15 25.04 штиль 0 4000 м 10/4 600 м
[Sc diur, vesp Ac As Ci sp]
+30.0 +24.3 72 +42 +42 опасность
перегрева
1009.8 1010.0
18 25.04 штиль 0 4000 м 5/3 600 м
[Sc diur, vesp Ci sp]
+29.4 +25.3 79 +43 +43 опасность
перегрева
1011.2 1011.0
21 25.04 штиль 0 4000 м 3/1 600 м
[Sc diur, vesp Ci sp]
+29.0 +25.2 80 +42 +42 опасность
перегрева
1009.0 1009.0
00 26.04 штиль 0 4000 м 4/3 600 м
[Sc diur, vesp Ci sp]
+28.0 +24.4 81 +39 +39 очень
душно
1008.8 1009.0
03 26.04 штиль 0 10 км 3/1 600 м
[Sc diur, vesp Ci sp]
+28.8 +23.3 72 +39 +46 очень
душно
1010.8 1011.0 +25.6 +35.2
06 26.04 ЮЗ 2 10 км 3/1 600 м
[Sc diur, vesp Ci sp]
+35.0 +27.6 66 +55 +74 опасность
перегрева
1011.2 1011.0
09 26.04 ЮЗ 2 10 км 3/1 600 м
[Sc diur, vesp Ci sp]
+35.2 +27.3 64 +54 +70 опасность
перегрева
1008.9 1009.0
12 26.04 ЮЗ 1 10 км 5/3 600 м
[Sc diur, vesp Ac trans Ci sp]
+32.0 +25.8 70 +47 +48 опасность
перегрева
1009.0 1009.0 +35.7
15 26.04 штиль 0 4000 м 5/3 600 м
[Sc diur, vesp Ci sp]
+30.0 +24.3 72 +42 +42 опасность
перегрева
1010.5 1011.0
18 26.04 штиль 0 4000 м 5/3 600 м
[Sc diur, vesp Ci sp]
+29.6 +24.3 73 +41 +41 опасность
перегрева
1011.3 1011.0
21 26.04 штиль 0 4000 м 5/3 600 м
[Sc diur, vesp Ci sp]
+29.0 +25.2 80 +42 +42 опасность
перегрева
1009.7 1010.0
00 27.04 штиль 0 4000 м 5/3 600 м
[Sc diur, vesp Ci sp]
+28.0 +24.4 81 +39 +39 очень
душно
1009.8 1010.0
03 27.04 штиль 0 10 км 3/1 600 м
[Sc diur, vesp Ci sp]
+30.0 +24.3 72 +42 +50 опасность
перегрева
1011.4 1011.0 +27.0 +35.7
06 27.04 З 2 10 км 3/1 600 м
[Sc diur, vesp Ci sp]
+34.6 +27.5 67 +54 +74 опасность
перегрева
1011.3 1011.0
09 27.04 З 3 10 км 3/1 600 м
[Sc diur, vesp Ci fib]
+34.6 +26.0 61 +50 +63 опасность
перегрева
1009.1 1009.0
12 27.04 З 2 10 км 3/1 600 м
[Sc diur, vesp Ci fib]
+32.6 +26.5 70 +49 +51 опасность
перегрева
1008.1 1008.0 +35.0
15 27.04 З 1 4000 м 4/1 600 м
[Sc diur, vesp Ac trans]
+30.2 +25.7 77 +45 +45 опасность
перегрева
1010.8 1011.0
18 27.04 СЗ 1 4000 м 6/3 600 м
[Sc diur, vesp Ac trans]
+30.0 +25.5 77 +44 +44 опасность
перегрева
1012.0 1012.0
21 27.04 штиль 0 4000 м 8/4 600 м
[Sc diur, vesp Ac trans]
+29.4 +25.7 81 +44 +44 опасность
перегрева
1010.8 1011.0
00 28.04 штиль 0 4000 м 10/4 600 м
[Cu Sc Ac As]
+28.4 +25.6 85 +42 +42 опасность
перегрева
1010.8 1011.0
03 28.04 С 1 10 км 3/1 600 м
[Sc diur, vesp Ci fib]
+30.4 +25.9 77 +45 +52 опасность
перегрева
1012.2 1012.0 +28.0 +35.0
06 28.04 З 2 10 км 1/1 600 м
[Sc diur, vesp]
+35.2 +26.7 62 +53 +71 опасность
перегрева
1011.7 1012.0
09 28.04 З 3 10 км 1/1 600 м
[Cu hum]
+36.4 +27.1 59 +54 +68 опасность
перегрева
1008.8 1009.0
12 28.04 З 2 10 км 5/4 600 м
[Cu Sc Ac trans]
+32.6 +27.1 73 +51 +52 опасность
перегрева
1008.3 1008.0 +37.1
15 28.04 СЗ 1 4000 м 5/4 600 м
[Cu Sc Ac trans]
+30.2 +26.3 80 +46 +46 опасность
перегрева
1009.2 1009.0
18 28.04 С 1 4000 м 4/4 300 м
[Cu Sc]
+29.8 +26.2 81 +45 +45 опасность
перегрева
1010.7 1011.0
21 28.04 штиль 0 4000 м 8/4 600 м
[Cu Sc Ac trans]
+28.8 +25.4 82 +42 +42 опасность
перегрева
1009.5 1010.0
00 29.04 штиль 0 4000 м 4/1 600 м
[Sc diur, vesp Ac trans Ci fib]
+28.2 +25.4 85 +41 +41 опасность
перегрева
1010.0 1010.0
03 29.04 штиль 0 10 км 3/1 600 м
[Sc diur, vesp Ci fib]
+30.2 +24.8 73 +43 +51 опасность
перегрева
1011.7 1012.0 +27.4 +37.1
06 29.04 З 2 10 км 1/1 600 м
[Sc diur, vesp]
+35.4 +26.6 61 +53 +71 опасность
перегрева
1011.5 1012.0
09 29.04 ЮЗ 3 10 км 1/1 600 м
[Sc diur, vesp]
+36.4 +26.2 56 +52 +66 опасность
перегрева
1009.5 1010.0
12 29.04 СЗ 2 10 км 5/3 600 м
[Sc diur, vesp Ac trans]
+33.6 +26.4 66 +50 +51 опасность
перегрева
1008.8 1009.0 +37.0
15 29.04 штиль 0 4000 м 5/3 600 м
[Sc diur, vesp Ac trans Ci fib]
+30.6 +26.1 77 +46 +46 опасность
перегрева
1010.9 1011.0

 

Местоположение метеостанции Kozhikode (Kerala, Индия): широта 11.25 долгота 75.78 высота над уровнем моря 5 м.

В архиве по умолчанию представлена погода в Kozhikode за последнюю неделю. Архивные данные за месяц целиком и за предыдущие месяцы, начиная с января 2011 года, Вы можете получить, выбрав интересующий диапазон дат из раскрывающегося списка и нажав кнопку "Ввод!".

Внимание! Время в таблицах - всемирное. Для получения местного времени необходимо прибавить поправку, которая в Kozhikode равна 5.5 ч.

Смотрите также архив погоды в соседних городах и на ближайших метеорологических станциях:

Погода в Karipur (Kerala, Индия) (23 км)
Погода в Cannanore (Kerala, Индия) (81 км)
Погода в Thrissur (Kerala, Индия) (94 км)
Погода в Udhagamandalam (Tamil Nadu, Индия) (105 км)
Погода в Palakkad (Kerala, Индия) (109 км)
Погода в Coonoor (Tamil Nadu, Индия) (112 км)
Погода в Madikeri (Karnataka, Индия) (130 км)
Погода в Kochi (Kerala, Индия) (140 км)
Погода в Coimbatore (Tamil Nadu, Индия) (141 км)
Погода в Chamarajnagar (Karnataka, Индия) (146 км)

Пояснения к столбцам:

Ветер - указаны скорость ветра в м/с - средняя за 10 мин, порывы в срок и между сроками (в фигурных скобках) и направление, откуда дует ветер: С - северный, СВ - северо-восточный, В - восточный, ЮВ - юго-восточный, Ю - южный, ЮЗ - юго-западный, З - западный, СЗ - северо-западный.
Видимость - горизонтальная дальность видимости в метрах или километрах. При видимости от 1 до 10 км при отсутствии осадков обычно наблюдается дымка, при ухудшении видимости до 1 км и менее - туман. В сухую погоду видимость может ухудшаться дымом, пылью или мглою.
Явления - указаны атмосферные явления, наблюдавшиеся в срок или в последний час перед сроком; фигурными скобками обозначены явления, наблюдавшиеся между сроками (за 1-3 часа до срока); квадратными скобками обозначены град или гололедные отложения с указанием их диаметра в мм.
Облачность - указаны через наклонную черту общая и нижняя облачность в баллах и высота нижней границы облаков в метрах; квадратными скобками обозначены формы облаков: Ci - перистые, Cs - перисто-слоистые, Cc - перисто-кучевые, Ac - высококучевые, As - высокослоистые, Sc - слоисто-кучевые, Ns - слоисто-дождевые, Cu - кучевые, Cb - кучево-дождевые. Подробнее классификацию облаков см. в Атласе облаков (PDF).
T - Температура воздуха - температура, измеренная на высоте 2 м над землей.
Td - Температура точки росы - температура, при понижении до которой содержащийся в воздухе водяной пар достигнет насыщения.
f - Относительная влажность воздуха - влажноcть воздуха, измеренная на высоте 2 м над землей.
Te - Эффективная температура - температура, которую ощущает одетый по сезону человек в тени. Характеристика душности погоды. При расчете учитывается влияние влажности воздуха и скорости ветра на теплоощущения человека.
Tes - Эффективная температура на солнце - температура, которую ощущает человек, с поправкой на солнечный нагрев. Характеристика знойности погоды. Зависит от высоты солнца над горизонтом, облачности и скорости ветра. Ночью, в пасмурную погоду, а также при ветре 12 м/с и более поправка равна нулю.
P - Атмосферное давление - приведенное к уровню моря атмосферное давление.
Po - Атмосферное давление - измеренное на уровне метеостанции атмосферное давление.
Tmin - Минимальная температура - минимум температуры воздуха на высоте 2 м над землей.
Tmax - Максимальная температура - максимум температуры воздуха на высоте 2 м над землей.
R - Количество осадков - Количество выпавших осадков за период времени, мм. При наведении курсора мыши на число - период времени, за который выпало указанное количество осадков.
R24 - Количество осадков - Количество выпавших осадков за 24 часа, мм.
S - Снежный покров - Высота снежного покрова, см. При наведении курсора мыши на число - состояние снежного покрова и степень покрытия местности в баллах.